Showing default

SEAHAWK-1, 43820

Orbit data source: Space-Track

SEAHAWK-1, 43820 is an American payload satellite in SSO that was launched on Mon, 03 Dec 2018 UTC via an FALCON 9 launch vehicle from the Air Force Western Test Range (AFWTR). Payload-class satellites include a variety of spacecraft equipped with specific instruments for various scientific and technological missions. These include communications satellites like Starlink; space stations such as the ISS; scientific satellites like the Hubble; Earth observation satellites from companies like Planet Labs, Umbra, and HawkEye 360; GPS; miniature CubeSats for education and research; and military/defense satellites.

Loading next visibility...
Identifier
43820, 2018-099BQ
Orbit
SSO
Country
Flag of USUS
Related business
Manufacturer
AAC ClydeSpace
Mission
Operational Amateur Technology
Bus & Motor
CUBESAT 3U, Unknown motor
Mass
5 kg wet, 5 kg dry
Launch date (UTC)
2018-12-03 (8 years ago)
Launch vehicle
FALCON 9
Launch site
Air Force Western Test Range (AFWTR)
Object type
Payload
Rocket body
Debris
Shape & HBR
Box + 4 Pan, 1.0 m
Radar Cross Section
0.035 m², Medium (>0.1 m² and < 1m²)

Expand to show TLE details & history
Last TLE update: 23 hours ago

TLE from 23 hours ago
0 SEAHAWK-1
1 43820U 18099BQ  26235.59827143  .00007282  00000-0  30506-3 0  9997
2 43820  97.3908 287.0810 0009757  77.0557 283.1769 15.23787268422799
Epoch: 2026-08-23T14:21Z
TLE epoch observation values (Epoch: 2026-08-23T14:21:30.651Z)
Latitude
-0.00006°
Longitude
99.81127°
Altitude
496.003 km
Speed
7.618 km/s
True Right ascension
19h 08m 19s
True Declination
0° 00' 00"
Sunlit
Object was in full shadow at epoch
Visualization orbit readout
Latitude
Unknown
Longitude
Unknown
Altitude
Unknown
Speed
Unknown
Apparent Right ascension
Unknown
Apparent Declination
Unknown
Sunlit
N/A
Visualization observer readout
Local Sidereal Time
04:19:40
Azimuth
Unknown
Elevation
Unknown
Doppler factor
Unknown
Orbital elements
Apogee altitude
498.092 km
Perigee altitude
484.687 km
Semi-major axis
6,869.527 km
Eccentricity
0.00098
Inclination
97.3908°
RAAN
287.081°
Arg. of periapsis
77.0557°
True anomaly
283.06801°
Mean anomaly
283.1769°
Eccentric anomaly
283.12246°
Mean motion
3.812 °/min
Orbital period
94.44 mins
BSTAR
0.00030506
Loading maneuver chart data...
Computing Atmospheric mass density...
Loading historical data...
Loading historical data...
Loading historical data...
Loading historical data...
Loading historical data...
Loading historical data...
Loading historical data...

Documentation

Showing up to 5 results
|